Terminal Aerodrome Forecast
Issued by NWS

Home | Current Version | Previous Version | Text Only | Print | Product List | Glossary On
Versions: 1 2 3 4 5 6 7 8 9 10 11 12 13 14
000
FTUS44 KSJT 012300
TAFBBD
TAF
KBBD 012324Z 0200/0224 15008KT P6SM FEW250
     FM021100 16009KT P6SM SCT015
     FM021600 18010KT P6SM SCT025=

USA.gov is the U.S. government's official web portal to all federal, state and local government web resources and services.